This demonstration page uses our WeatherBlox Daily Observations layout. Learn more.

38.88101, -77.10428

Hourly Observations for March 20, 2017

Temp ( °F °C ) Dew Point ( °F °C ) Humidity (%) Winds ( mph kmh ) Pressure ( in mb ) Visibility ( mi km ) Precip ( " mm )
12:52 am 00:52 Partly Cloudy 43 6.1 31 -0.6 63 63 NW 9 15 30.24 1024 10 16.09344 0 0
1:52 am 01:52 Mostly Clear 42 5.6 31 -0.6 65 65 NW 12 19 30.21 1023 10 16.09344 0 0
2:52 am 02:52 Partly Cloudy 41 5 31 -0.6 67 67 NW 10 17 30.21 1023 10 16.09344 0 0
3:52 am 03:52 Mostly Clear 40 4.4 30 -1.1 68 68 NNW 9 15 30.18 1022 10 16.09344 0 0
4:52 am 04:52 Mostly Clear 39 3.9 30 -1.1 70 70 NNW 10 17 30.18 1022 10 16.09344 0 0
5:52 am 05:52 Mostly Clear 38 3.3 30 -1.1 73 73 NNW 10 17 30.21 1023 10 16.09344 0 0
6:52 am 06:52 Mostly Clear 38 3.3 30 -1.1 73 73 NNW 9 15 30.21 1023 10 16.09344 0 0
7:52 am 07:52 Mostly Sunny 40 4.4 31 -0.6 70 70 NNW 9 15 30.21 1023 10 16.09344 0 0
8:52 am 08:52 Mostly Sunny 43 6.1 32 0 65 65 NNW 12 19 30.21 1023 10 16.09344 0 0
9:52 am 09:52 Partly Cloudy 46 7.8 31 -0.6 56 56 NW 10 17 30.21 1023 10 16.09344 0 0
10:52 am 10:52 Partly Cloudy 49 9.4 26 -3.3 41 41 N 13 20 30.18 1022 10 16.09344 0 0
11:52 am 11:52 Mostly Cloudy 51 10.6 28 -2.2 41 41 N 8 13 30.18 1022 10 16.09344 0 0
12:52 pm 12:52 Cloudy 53 11.7 29 -1.7 40 40 NNW 7 11 30.15 1021 10 16.09344 0 0
1:52 pm 13:52 Cloudy 53 11.7 29 -1.7 40 40 NNW 7 11 30.15 1021 10 16.09344 0 0
2:52 pm 14:52 Cloudy 53 11.7 30 -1.1 41 41 N 8 13 30.12 1020 10 16.09344 0 0
3:52 pm 15:52 Cloudy 53 11.7 31 -0.6 43 43 NNE 8 13 30.09 1019 10 16.09344 0 0
4:52 pm 16:52 Cloudy 52 11.1 32 0 47 47 NE 5 7 30.06 1018 10 16.09344 0 0
5:52 pm 17:52 Cloudy 52 11.1 32 0 47 47 Calm 30.06 1018 10 16.09344 0 0
6:52 pm 18:52 Cloudy 51 10.6 35 1.7 54 54 Calm 30.03 1017 10 16.09344 0 0
7:52 pm 19:52 Cloudy 51 10.6 34 1.1 52 52 NE 3 6 30.03 1017 10 16.09344 0 0
8:52 pm 20:52 Cloudy 51 10.6 36 2.2 56 56 Calm 30.06 1018 10 16.09344 0 0
9:52 pm 21:52 Cloudy 50 10 34 1.1 54 54 Calm 30.03 1017 10 16.09344 0 0
10:52 pm 22:52 Cloudy 50 10 35 1.7 57 57 S 5 7 30.03 1017 10 16.09344 0 0
11:52 pm 23:52 Cloudy 50 10 32 0 50 50 Calm 30 1016 10 16.09344 0 0

Powered by AerisWeather